Weather History for Grove, OK

Change the Weather History Date:

Thursday, October 18, 2012

  Actual Average (KSLG) Record (KSLG)
Temperature  
Mean Temperature 58 °F -  
Max Temperature 66 °F 66 °F 89 °F (2005)
Min Temperature 50 °F 46 °F 32 °F (1996)
Degree Days  
Heating Degree Days 7    
Growing Degree Days 8 (Base 50)    
Moisture  
Dew Point 32 °F    
Average Humidity 39    
Maximum Humidity 62    
Minimum Humidity 23    
Precipitation  
Precipitation 0.00 in - - ()
Sea Level Pressure  
Sea Level Pressure 29.82 in    
Wind  
Wind Speed 8 mph (West)    
Max Wind Speed 24 mph    
Max Gust Speed 32 mph    
Visibility 9 miles    
Events      
Averages and records for this station are not official NWS values.
T = Trace of Precipitation, MM = Missing Value Source: NWS Daily Summary

Daily Weather History Graph

Daily Weather History Graph

Search for Another Location

Airport:

Trip Planner

Search our weather history database for the weather conditions in past years. The results will help you decide how hot, cold, wet, or windy it might be!

Date:

Astronomy

Oct. 18, 2012 Rise Set
Actual Time 7:29 AM CDT 6:37 PM CDT
Civil Twilight 7:03 AM CDT 7:04 PM CDT
Nautical Twilight 6:33 AM CDT 7:34 PM CDT
Astronomical Twilight 6:03 AM CDT 8:03 PM CDT
Moon 11:06 AM CDT (10/18) 9:18 PM CDT (10/18)
Length of Visible Light 12h 00m
Length of Day
11h 08m
Waxing Crescent, 14% of the Moon is Illuminated
Oct 18
Waxing Crescent
Oct 21
First Quarter
Oct 29
Full
Nov 6
Last Quarter
Nov 13
New

Hourly Weather History & Observations

Time (CDT) Temp. Dew Point Humidity Pressure Visibility Wind Dir Wind Speed Gust Speed Precip Events Conditions
12:15 AM 55.4 °F 37.4 °F 51% 29.78 in 10.0 mi West 3.5 mph - N/A   Clear
12:35 AM 55.4 °F 35.6 °F 47% 29.78 in 10.0 mi West 3.5 mph - N/A   Clear
12:55 AM 55.4 °F 35.6 °F 47% 29.79 in 10.0 mi West 4.6 mph - N/A   Clear
1:15 AM 55.4 °F 37.4 °F 51% 29.80 in 10.0 mi West 4.6 mph - N/A   Clear
1:35 AM 55.4 °F 35.6 °F 47% 29.80 in 10.0 mi West 4.6 mph - N/A   Clear
1:55 AM 55.4 °F 37.4 °F 51% 29.80 in 10.0 mi West 4.6 mph - N/A   Clear
2:15 AM 55.4 °F 37.4 °F 51% 29.81 in 10.0 mi West 5.8 mph - N/A   Clear
2:35 AM 53.6 °F 39.2 °F 58% 29.81 in 10.0 mi West 4.6 mph - N/A   Clear
2:55 AM 51.8 °F 39.2 °F 62% 29.81 in 10.0 mi WSW 5.8 mph - N/A   Clear
3:15 AM 51.8 °F 37.4 °F 58% 29.80 in 10.0 mi WSW 5.8 mph - N/A   Clear
3:35 AM 51.8 °F 37.4 °F 58% 29.81 in 10.0 mi WSW 3.5 mph - N/A   Clear
3:55 AM 51.8 °F 37.4 °F 58% 29.81 in 10.0 mi Calm Calm - N/A   Clear
4:15 AM 51.8 °F 37.4 °F 58% 29.81 in 10.0 mi West 3.5 mph - N/A   Clear
4:35 AM 51.8 °F 37.4 °F 58% 29.81 in 10.0 mi Calm Calm - N/A   Clear
4:55 AM 50.0 °F 37.4 °F 62% 29.82 in 10.0 mi Calm Calm - N/A   Clear
5:15 AM 51.8 °F 37.4 °F 58% 29.82 in 10.0 mi West 4.6 mph - N/A   Clear
5:35 AM 50.0 °F 37.4 °F 62% 29.82 in 10.0 mi West 5.8 mph - N/A   Clear
5:55 AM 50.0 °F 35.6 °F 58% 29.83 in 10.0 mi WSW 6.9 mph - N/A   Clear
6:35 AM 51.8 °F 33.8 °F 50% 29.84 in 10.0 mi West 8.1 mph - N/A   Clear
6:55 AM 51.8 °F 33.8 °F 50% 29.84 in 10.0 mi West 9.2 mph - N/A   Clear
7:15 AM 50.0 °F 33.8 °F 54% 29.85 in 10.0 mi West 8.1 mph - N/A   Clear
7:35 AM 50.0 °F 33.8 °F 54% 29.85 in 10.0 mi West 8.1 mph - N/A   Clear
7:55 AM 51.8 °F 32.0 °F 47% 29.85 in 10.0 mi West 8.1 mph - N/A   Clear
8:15 AM 51.8 °F 32.0 °F 47% 29.86 in 10.0 mi West 9.2 mph 16.1 mph N/A   Clear
8:35 AM 51.8 °F 32.0 °F 47% 29.86 in 10.0 mi WNW 11.5 mph 20.7 mph N/A   Clear
8:55 AM 53.6 °F 32.0 °F 44% 29.86 in 10.0 mi West 6.9 mph - N/A   Clear
9:15 AM 53.6 °F 32.0 °F 44% 29.87 in 10.0 mi West 9.2 mph - N/A   Clear
9:35 AM 55.4 °F 32.0 °F 41% 29.88 in 10.0 mi WNW 13.8 mph 21.9 mph N/A   Clear
9:55 AM 55.4 °F 32.0 °F 41% 29.88 in 10.0 mi West 10.4 mph - N/A   Clear
10:15 AM 57.2 °F 32.0 °F 38% 29.88 in 10.0 mi WNW 9.2 mph 16.1 mph N/A   Clear
10:35 AM 59.0 °F 32.0 °F 36% 29.87 in 10.0 mi WNW 12.7 mph 18.4 mph N/A   Clear
10:55 AM 59.0 °F 32.0 °F 36% 29.87 in 10.0 mi West 13.8 mph 23.0 mph N/A   Clear
11:15 AM 60.8 °F 32.0 °F 34% 29.87 in 10.0 mi West 12.7 mph 20.7 mph N/A   Clear
11:35 AM 60.8 °F 30.2 °F 31% 29.86 in 10.0 mi West 15.0 mph 26.5 mph N/A   Clear
11:55 AM 62.6 °F 28.4 °F 27% 29.86 in 10.0 mi West 17.3 mph 25.3 mph N/A   Clear
12:15 PM 62.6 °F 28.4 °F 27% 29.85 in 10.0 mi West 13.8 mph 28.8 mph N/A   Clear
12:35 PM 62.6 °F 28.4 °F 27% 29.85 in 10.0 mi West 13.8 mph 24.2 mph N/A   Clear
12:55 PM 62.6 °F 30.2 °F 30% 29.84 in 10.0 mi West 16.1 mph 24.2 mph N/A   Clear
1:15 PM 64.4 °F 30.2 °F 28% 29.84 in 10.0 mi West 17.3 mph 25.3 mph N/A   Clear
1:35 PM 64.4 °F 30.2 °F 28% 29.83 in 10.0 mi WSW 24.2 mph 29.9 mph N/A   Clear
1:55 PM 64.4 °F 28.4 °F 26% 29.82 in 10.0 mi West 17.3 mph 28.8 mph N/A   Clear
2:15 PM 64.4 °F 28.4 °F 26% 29.81 in 10.0 mi West 16.1 mph 32.2 mph N/A   Clear
2:35 PM 66.2 °F 30.2 °F 26% 29.81 in 10.0 mi West 16.1 mph 25.3 mph N/A   Clear
2:55 PM 64.4 °F 28.4 °F 26% 29.80 in 10.0 mi West 17.3 mph 23.0 mph N/A   Clear
3:15 PM 66.2 °F 28.4 °F 24% 29.80 in 10.0 mi West 13.8 mph 23.0 mph N/A   Clear
3:35 PM 66.2 °F 26.6 °F 23% 29.80 in 10.0 mi West 13.8 mph 27.6 mph N/A   Clear
3:55 PM 66.2 °F 28.4 °F 24% 29.80 in 10.0 mi West 17.3 mph 24.2 mph N/A   Clear
4:15 PM 66.2 °F 28.4 °F 24% 29.79 in 10.0 mi West 16.1 mph 25.3 mph N/A   Clear
4:35 PM 66.2 °F 28.4 °F 24% 29.79 in 10.0 mi West 15.0 mph 23.0 mph N/A   Clear
4:55 PM 66.2 °F 28.4 °F 24% 29.79 in 10.0 mi West 17.3 mph 27.6 mph N/A   Clear
5:15 PM 66.2 °F 28.4 °F 24% 29.79 in 10.0 mi West 12.7 mph 26.5 mph N/A   Clear
5:35 PM 64.4 °F 30.2 °F 28% 29.78 in 10.0 mi West 15.0 mph 23.0 mph N/A   Clear
5:55 PM 64.4 °F 30.2 °F 28% 29.79 in 10.0 mi West 13.8 mph 19.6 mph N/A   Clear
6:15 PM 64.4 °F 30.2 °F 28% 29.79 in 10.0 mi West 10.4 mph 19.6 mph N/A   Clear
6:35 PM 62.6 °F 30.2 °F 30% 29.79 in 10.0 mi West 10.4 mph - N/A   Clear
6:55 PM 62.6 °F 32.0 °F 32% 29.79 in 10.0 mi West 8.1 mph - N/A   Clear
7:15 PM 62.6 °F 32.0 °F 32% 29.80 in 10.0 mi West 6.9 mph - N/A   Mostly Cloudy
7:35 PM 62.6 °F 32.0 °F 32% 29.80 in 10.0 mi West 5.8 mph - N/A   Overcast
7:55 PM 62.6 °F 32.0 °F 32% 29.80 in 7.0 mi West 6.9 mph - N/A   Overcast
8:35 PM 62.6 °F 32.0 °F 32% 29.80 in 7.0 mi West 9.2 mph - N/A   Scattered Clouds
8:55 PM 62.6 °F 32.0 °F 32% 29.80 in 5.0 mi West 10.4 mph - N/A   Haze
9:15 PM 62.6 °F 32.0 °F 32% 29.80 in 5.0 mi West 10.4 mph 17.3 mph N/A   Haze
9:35 PM 62.6 °F 30.2 °F 30% 29.80 in 5.0 mi West 10.4 mph 17.3 mph N/A   Haze
9:55 PM 62.6 °F 30.2 °F 30% 29.80 in 4.0 mi West 6.9 mph - N/A   Haze
10:15 PM 62.6 °F 32.0 °F 32% 29.80 in 4.0 mi West 9.2 mph - N/A   Haze
10:35 PM 62.6 °F 32.0 °F 32% 29.80 in 4.0 mi West 5.8 mph - N/A   Haze
10:55 PM 62.6 °F 32.0 °F 32% 29.80 in 4.0 mi West 6.9 mph - N/A   Haze